[[{"header":{"parameterUnit":"m.s-1","parameterCategory":1,"la1":30.2991,"la2":30.254,"lo1":-89.0895,"lo2":-89.0444,"dy":0.0017,"dx":0.0017,"nx":28,"ny":28,"refTime":"2023-11-17T09:00:00:Z","depth":0,"parameterNumber":2,"parameterNumberName":"U-component_of_WINDS"},"data":[0,0,0,0,0,0,0,0,0,0,0,0,0,0,0,0,0,0,0,0,0,0,0,0,0,0,0,0,0,0,0,0,0,0,0,0,0,0,0,0,0,0,0,0,0,0,0,0,0,0,0,0,0,0,0,0,0,0,1.3182,1.3183,0,1.3227,1.3228,1.3228,1.3213,1.3212,1.3211,1.321,1.3257,1.3259,1.3261,0,0,0,0,0,0,0,0,0,0,0,0,0,1.3087,1.3089,1.3182,1.3183,1.3184,1.3227,1.3228,1.3228,1.3213,1.3212,1.321,1.3209,1.3256,1.3259,1.3261,0,0,0,0,0,0,0,0,0,0,0,0,0,1.313,1.3089,1.3182,1.3181,1.3181,1.3227,1.3228,1.3228,1.3213,1.3212,1.321,1.3209,1.3255,1.3258,1.3262,1.3312,0,0,1.3272,1.3273,0,0,0,0,0,0,0,0,1.3127,1.3133,1.3181,1.3181,1.3182,1.3213,1.3211,1.3256,1.3213,1.3201,1.321,1.3208,1.3244,1.3248,1.3259,1.3314,1.3316,1.3272,1.3274,1.3275,1.3276,0,0,0,0,0,0,0,1.3124,1.3131,1.32,1.3181,1.3182,1.3179,1.3184,1.322,1.323,1.3202,1.3201,1.3206,1.3243,1.3256,1.326,1.3317,1.3272,1.3275,1.3277,1.3278,1.3417,1.3418,0,0,0,0,0,0,1.3121,1.3129,1.3199,1.3201,1.315,1.3182,1.3187,1.3204,1.323,1.3232,1.3208,1.3206,1.3251,1.3257,1.3262,1.3323,1.3275,1.3278,1.328,1.3415,1.3417,1.3419,0,0,0,0,0,0,1.3119,1.3127,1.3197,1.3165,1.3174,1.3185,1.3205,1.3206,1.3219,1.3234,1.3236,1.3218,1.325,1.3257,1.33,1.3325,1.328,1.3283,1.3413,1.3416,1.3418,1.3446,0,0,0,0,0,0,1.3116,1.3126,1.3145,1.3165,1.3175,1.3233,1.3206,1.3208,1.3224,1.3222,1.3245,1.3247,1.325,1.3295,1.3303,1.3328,1.3285,1.3411,1.3414,1.3417,1.3443,1.3449,1.3454,0,0,0,0,0,1.3113,1.315,1.3146,1.3154,1.3198,1.3234,1.324,1.3242,1.3226,1.3245,1.3255,1.3246,1.3321,1.3299,1.3308,1.3335,1.3409,1.3413,1.3417,1.344,1.3448,1.3454,0,0,0,0,0,0,1.3132,1.3153,1.3148,1.3193,1.3212,1.3232,1.3256,1.325,1.3274,1.3271,1.3273,1.3278,1.3322,1.3333,1.3309,1.3386,1.3363,1.3369,1.3377,1.3385,1.339,1.3387,1.3288,0,0,0,0,0,1.3142,1.3169,1.3186,1.3224,1.3234,1.3244,1.3259,1.3259,1.3279,1.3287,1.3301,1.3321,1.3349,1.3367,1.3394,1.3444,1.345,1.3467,1.3473,1.3478,1.3483,1.3512,1.3521,1.3432,1.3432,1.3432,0,0,1.3162,1.3177,1.3193,1.3229,1.3243,1.3273,1.325,1.3281,1.3303,1.3292,1.3333,1.3344,1.3367,1.3414,1.3435,1.3424,1.3509,1.3483,1.3486,1.3489,1.3517,1.3525,1.3533,1.3434,1.3434,1.3434,0,0,1.3213,1.3227,1.3261,1.3276,1.3299,1.3305,1.3314,1.3335,1.3342,1.3383,1.3376,1.3403,1.345,1.3468,1.3483,1.3543,1.3537,1.3552,1.3582,1.3611,1.3618,1.3624,1.3647,1.3655,1.3557,1.3557,1.3557,0,1.3235,1.3278,1.3279,1.3312,1.3328,1.332,1.3356,1.3371,1.3401,1.3413,1.3401,1.3462,1.3477,1.3529,1.3544,1.3556,1.3567,1.3549,1.3617,1.3623,1.3629,1.3651,1.3659,1.3559,1.3559,1.3559,1.3559,0,1.3304,1.3334,1.336,1.3389,1.3409,1.3443,1.3451,1.3471,1.347,1.3478,1.3521,1.3539,1.357,1.3582,1.3582,1.3635,1.3628,1.3616,1.3593,1.3639,1.366,1.3668,1.3562,1.3561,1.356,1.356,0,0,1.3368,1.3399,1.3409,1.3423,1.3449,1.3472,1.3507,1.3537,1.3555,1.3577,1.3606,1.3649,1.3638,1.3656,1.3657,1.3682,1.3731,1.3668,1.3668,1.3679,1.3793,1.3801,1.3811,1.3727,1.3728,1.373,1.3791,0,1.3422,1.3481,1.3485,1.3539,1.3568,1.3562,1.3592,1.3612,1.3621,1.3648,1.3659,1.3689,1.3672,1.3683,1.3708,1.372,1.3754,1.3715,1.3756,1.3757,1.375,1.3821,1.383,1.3887,1.3799,1.38,1.3801,0,1.3492,1.3516,1.3574,1.3597,1.361,1.3637,1.3666,1.3691,1.3714,1.3719,1.374,1.3738,1.3775,1.3751,1.3803,1.3777,1.3794,1.3803,1.3805,1.3809,1.3782,1.3828,1.3905,1.3914,1.3814,1.3813,1.3812,0,1.3533,1.3581,1.3622,1.3634,1.3662,1.3682,1.3694,1.3716,1.3735,1.3761,1.3773,1.3803,1.382,1.3844,1.3851,1.3833,1.3904,1.388,1.391,1.391,1.3925,1.3924,1.4007,1.3936,1.3935,1.3935,1.3935,0,1.3593,1.3629,1.3641,1.3666,1.3707,1.3711,1.3752,1.3763,1.3783,1.3812,1.3809,1.3836,1.3844,1.3873,1.3879,1.3922,1.393,1.3936,1.3937,1.3936,1.3935,1.3947,1.3943,1.3938,1.3937,1.3937,1.3936,0,1.3645,1.3655,1.3699,1.3723,1.373,1.3759,1.378,1.3805,1.3814,1.3851,1.3859,1.3875,1.3909,1.3919,1.396,1.3964,1.4015,1.4013,1.4007,1.4007,1.4037,1.4034,1.413,1.4144,1.4064,1.4064,1.4065,0,1.3683,1.371,1.3737,1.3756,1.377,1.38,1.3819,1.3826,1.3846,1.3876,1.3898,1.3932,1.3959,1.4015,1.403,1.4062,1.4061,1.4092,1.4065,1.4064,1.4062,1.4061,1.4064,1.4097,1.4098,1.4099,1.4099,0,1.3749,1.3753,1.378,1.381,1.3834,1.3858,1.3881,1.3897,1.3907,1.3931,1.3965,1.3987,1.4029,1.4064,1.4097,1.4111,1.4108,1.4108,1.4117,1.4116,1.4112,1.4115,1.4021,1.4105,1.4105,1.4104,1.4104,1.4104,1.3795,1.382,1.3843,1.3875,1.3893,1.3916,1.3941,1.3954,1.3983,1.4018,1.4021,1.4059,1.4084,1.4128,1.4144,1.4175,1.4166,1.4179,1.4182,1.4185,1.4188,1.4107,1.4181,1.4181,1.4181,1.4181,1.4181,0,1.3861,1.3877,1.3906,1.3939,1.3964,1.3959,1.3985,1.4007,1.404,1.4063,1.4091,1.4132,1.4166,1.4185,1.4219,1.424,1.424,1.4249,1.4248,1.4252,1.4194,1.4183,1.4249,1.4249,1.4249,1.4249,1.4249,1.4249,1.3899,1.3941,1.3948,1.4,1.4015,1.4053,1.4068,1.4089,1.4108,1.4155,1.4183,1.4195,1.4217,1.4253,1.4285,1.4289,1.4302,1.4313,1.4317,1.4262,1.4255,1.4249,1.4239,1.4316,1.4316,1.4372,1.4373,1.4373]},{"header":{"parameterUnit":"m.s-1","parameterCategory":1,"la1":30.2991,"la2":30.254,"lo1":-89.0895,"lo2":-89.0444,"dy":0.0017,"dx":0.0017,"nx":28,"ny":28,"refTime":"2023-11-17T09:00:00:Z","depth":0,"parameterNumber":3,"parameterNumberName":"V-component_of_WINDS"},"data":[0,0,0,0,0,0,0,0,0,0,0,0,0,0,0,0,0,0,0,0,0,0,0,0,0,0,0,0,0,0,0,0,0,0,0,0,0,0,0,0,0,0,0,0,0,0,0,0,0,0,0,0,0,0,0,0,0,0,-5.589,-5.5891,0,-5.5968,-5.5969,-5.597,-5.5933,-5.5931,-5.5929,-5.5927,-5.6002,-5.6005,-5.6009,0,0,0,0,0,0,0,0,0,0,0,0,0,-5.5704,-5.5708,-5.589,-5.5891,-5.5892,-5.5968,-5.5969,-5.597,-5.5933,-5.5931,-5.5928,-5.5926,-5.6,-5.6005,-5.6009,0,0,0,0,0,0,0,0,0,0,0,0,0,-5.5784,-5.5709,-5.589,-5.5883,-5.5883,-5.5968,-5.5969,-5.597,-5.5934,-5.5931,-5.5928,-5.5925,-5.5999,-5.6004,-5.601,-5.6105,0,0,-5.6028,-5.603,0,0,0,0,0,0,0,0,-5.5779,-5.5791,-5.5883,-5.5883,-5.5884,-5.5938,-5.5931,-5.6015,-5.5934,-5.5914,-5.5927,-5.5923,-5.5982,-5.5989,-5.601,-5.6108,-5.6111,-5.6028,-5.6032,-5.6034,-5.6036,0,0,0,0,0,0,0,-5.5774,-5.5787,-5.592,-5.5884,-5.5885,-5.5874,-5.5882,-5.5947,-5.5964,-5.5916,-5.5913,-5.5923,-5.5982,-5.6005,-5.6012,-5.6113,-5.6028,-5.6033,-5.6037,-5.6039,-5.6295,-5.6298,0,0,0,0,0,0,-5.5769,-5.5783,-5.5918,-5.5923,-5.5823,-5.588,-5.5889,-5.5923,-5.5963,-5.5966,-5.5926,-5.5921,-5.5996,-5.6005,-5.6014,-5.613,-5.6034,-5.6039,-5.6043,-5.6291,-5.6296,-5.6299,0,0,0,0,0,0,-5.5765,-5.5782,-5.5915,-5.5852,-5.5868,-5.5886,-5.5925,-5.5926,-5.5949,-5.5971,-5.5973,-5.5946,-5.5994,-5.6006,-5.6084,-5.6132,-5.6042,-5.6047,-5.6287,-5.6293,-5.6297,-5.636,0,0,0,0,0,0,-5.576,-5.578,-5.5817,-5.5853,-5.5872,-5.5984,-5.5928,-5.593,-5.596,-5.5955,-5.5991,-5.5993,-5.5993,-5.6075,-5.6089,-5.6138,-5.6052,-5.6283,-5.629,-5.6296,-5.6354,-5.6367,-5.6378,0,0,0,0,0,-5.5754,-5.583,-5.5819,-5.5836,-5.5919,-5.5987,-5.5997,-5.5997,-5.5964,-5.6001,-5.6015,-5.5992,-5.6124,-5.6083,-5.6099,-5.615,-5.628,-5.6288,-5.6295,-5.6348,-5.6364,-5.6377,0,0,0,0,0,0,-5.5796,-5.5834,-5.5823,-5.5914,-5.5948,-5.5981,-5.6027,-5.6013,-5.6056,-5.6049,-5.6045,-5.6053,-5.6134,-5.6149,-5.6103,-5.6245,-5.6197,-5.6208,-5.6232,-5.6247,-5.6259,-5.6253,-5.6056,0,0,0,0,0,-5.5817,-5.587,-5.59,-5.5977,-5.5995,-5.6009,-5.6038,-5.6035,-5.6069,-5.6083,-5.6103,-5.6135,-5.6184,-5.6216,-5.6262,-5.6356,-5.6364,-5.6399,-5.6411,-5.642,-5.643,-5.6482,-5.6499,-5.6324,-5.6324,-5.6324,0,0,-5.5858,-5.5886,-5.5919,-5.5987,-5.6012,-5.6068,-5.6021,-5.608,-5.6121,-5.6091,-5.6167,-5.6183,-5.6219,-5.6306,-5.6344,-5.6321,-5.648,-5.643,-5.6438,-5.6442,-5.6492,-5.6509,-5.6523,-5.6329,-5.6328,-5.6327,0,0,-5.5962,-5.5989,-5.6057,-5.6085,-5.6126,-5.6135,-5.6152,-5.6188,-5.6198,-5.6274,-5.6254,-5.6302,-5.6385,-5.6413,-5.6438,-5.6557,-5.6538,-5.6571,-5.6634,-5.6685,-5.6699,-5.6711,-5.6754,-5.677,-5.6581,-5.6581,-5.6581,0,-5.6008,-5.6092,-5.6093,-5.6156,-5.6186,-5.6165,-5.6234,-5.6261,-5.6314,-5.6335,-5.6308,-5.6416,-5.6438,-5.6532,-5.6562,-5.6582,-5.6601,-5.6567,-5.6697,-5.6709,-5.6721,-5.6762,-5.6778,-5.6585,-5.6585,-5.6584,-5.6584,0,-5.6147,-5.6206,-5.6256,-5.6312,-5.6348,-5.6413,-5.6423,-5.6459,-5.6454,-5.6466,-5.6544,-5.6571,-5.6624,-5.6646,-5.6639,-5.6739,-5.6724,-5.6697,-5.6649,-5.6741,-5.678,-5.6796,-5.6591,-5.6589,-5.6588,-5.6587,0,0,-5.6278,-5.6337,-5.6355,-5.6381,-5.6427,-5.6471,-5.6536,-5.659,-5.6622,-5.6659,-5.6714,-5.6787,-5.6764,-5.6792,-5.6789,-5.6835,-5.6929,-5.6803,-5.6803,-5.6826,-5.7042,-5.7062,-5.7081,-5.6917,-5.692,-5.6922,-5.7039,0,-5.6387,-5.6503,-5.6507,-5.6612,-5.6667,-5.665,-5.6706,-5.674,-5.6753,-5.68,-5.6814,-5.6867,-5.6831,-5.6849,-5.6893,-5.6908,-5.6972,-5.69,-5.6967,-5.6969,-5.6959,-5.7101,-5.7122,-5.7231,-5.7054,-5.7057,-5.7059,0,-5.6528,-5.6575,-5.6687,-5.6728,-5.675,-5.6801,-5.6853,-5.6898,-5.6936,-5.6943,-5.6977,-5.6968,-5.7034,-5.6984,-5.7075,-5.7026,-5.7053,-5.7065,-5.707,-5.7076,-5.702,-5.7111,-5.7265,-5.7282,-5.7082,-5.7081,-5.7079,0,-5.6615,-5.6705,-5.6784,-5.6807,-5.6855,-5.6892,-5.6914,-5.6949,-5.6982,-5.7026,-5.7048,-5.7098,-5.7126,-5.7164,-5.7169,-5.7132,-5.7261,-5.7211,-5.7268,-5.7268,-5.7296,-5.7294,-5.7457,-5.7313,-5.7313,-5.7313,-5.7312,0,-5.6736,-5.6805,-5.6824,-5.6873,-5.695,-5.6954,-5.703,-5.7049,-5.7081,-5.7133,-5.712,-5.7168,-5.7172,-5.7221,-5.7225,-5.7301,-5.7313,-5.732,-5.732,-5.7321,-5.7321,-5.7339,-5.7332,-5.7317,-5.7316,-5.7315,-5.7314,0,-5.6845,-5.686,-5.6946,-5.6987,-5.6998,-5.7054,-5.7088,-5.7134,-5.7147,-5.7213,-5.7228,-5.7248,-5.7306,-5.7316,-5.7382,-5.7386,-5.7476,-5.7468,-5.7464,-5.7464,-5.752,-5.7515,-5.7701,-5.7727,-5.7566,-5.7567,-5.7568,0,-5.6921,-5.6975,-5.7023,-5.7058,-5.7082,-5.7138,-5.7173,-5.7179,-5.7216,-5.7265,-5.7306,-5.7363,-5.7409,-5.7503,-5.7522,-5.7574,-5.7568,-5.7629,-5.7575,-5.7576,-5.757,-5.7567,-5.7573,-5.764,-5.7641,-5.7643,-5.7644,0,-5.7056,-5.7062,-5.7113,-5.7169,-5.7212,-5.7255,-5.7296,-5.7325,-5.7337,-5.7378,-5.7439,-5.7476,-5.7546,-5.7603,-5.7656,-5.7676,-5.7663,-5.7661,-5.7677,-5.7679,-5.7675,-5.768,-5.7494,-5.7657,-5.7655,-5.7654,-5.7654,-5.7653,-5.7151,-5.7199,-5.7242,-5.73,-5.7333,-5.7372,-5.7419,-5.7439,-5.7491,-5.7551,-5.7551,-5.7618,-5.7656,-5.7725,-5.775,-5.7802,-5.7782,-5.7805,-5.7811,-5.7816,-5.7823,-5.7668,-5.7811,-5.7811,-5.781,-5.781,-5.781,0,-5.7286,-5.7313,-5.7368,-5.7427,-5.7474,-5.746,-5.7505,-5.7545,-5.7605,-5.7643,-5.769,-5.7761,-5.7817,-5.7842,-5.7897,-5.7934,-5.7929,-5.7948,-5.7946,-5.7951,-5.7837,-5.7818,-5.7952,-5.7952,-5.7952,-5.7951,-5.7951,-5.7951,-5.7362,-5.7443,-5.7454,-5.7552,-5.7578,-5.7645,-5.7673,-5.7709,-5.774,-5.7821,-5.7869,-5.7886,-5.7919,-5.7977,-5.8028,-5.8034,-5.8055,-5.8077,-5.808,-5.7973,-5.7959,-5.7945,-5.7927,-5.8082,-5.8082,-5.8191,-5.8192,-5.8192]}]]